This demonstration page uses our WeatherBlox Daily Observations layout. Learn more.

Left ArrowRight Arrow

Hourly Observations for June 7, 2015

Temp ( °F °C ) Dew Point ( °F °C ) Humidity (%) Winds ( mph kmh ) Pressure ( in mb ) Visibility ( mi km ) Precip ( " mm )
12:51 am 00:51 undefined 71 21.7 41 5 34 34 NW 7 11 29.74 1007 10 16 0.00 0.00
1:51 am 01:51 undefined 75 23.9 42 5.6 31 31 NNW 8 13 29.72 1007 10 16 0.00 0.00
2:51 am 02:51 undefined 71 21.7 41 5 34 34 WNW 9 15 29.73 1007 10 16 0.00 0.00
3:51 am 03:51 undefined 70 21.1 41 5 35 35 NE 5 7 29.74 1007 10 16 0.00 0.00
4:51 am 04:51 undefined 68 20 41 5 38 38 SSW 6 9 29.76 1008 10 16 0.00 0.00
5:51 am 05:51 undefined 66 18.9 40 4.4 39 39 Calm 29.78 1009 10 16 0.00 0.00
6:51 am 06:51 undefined 74 23.3 40 4.4 29 29 NNW 5 7 29.78 1009 10 16 0.00 0.00
7:51 am 07:51 undefined 79 26.1 39 3.9 24 24 WSW 3 6 29.80 1009 10 16 0.00 0.00
8:51 am 08:51 undefined 82 27.8 37 2.8 20 20 WNW 3 6 29.80 1009 10 16 0.00 0.00
9:51 am 09:51 undefined 87 30.6 39 3.9 18 18 VRB 6 9 29.79 1009 10 16 0.00 0.00
10:51 am 10:51 undefined 90 32.2 39 3.9 17 17 VRB 5 7 29.78 1008 10 16 0.00 0.00
11:51 am 11:51 undefined 93 33.9 38 3.3 14 14 WSW 8 13 29.75 1008 10 16 0.00 0.00
12:51 pm 12:51 undefined 95 35 37 2.8 13 13 VRB 3 6 29.74 1007 10 16 0.00 0.00
1:51 pm 13:51 undefined 97 36.1 37 2.8 12 12 VRB 7 11 29.71 1006 10 16 0.00 0.00
2:51 pm 14:51 undefined 96 35.6 36 2.2 12 12 VRB 5 7 29.70 1006 10 16 0.00 0.00
3:51 pm 15:51 undefined 100 37.8 37 2.8 11 11 WNW 13 20 29.68 1005 10 16 0.00 0.00
4:51 pm 16:51 undefined 97 36.1 36 2.2 12 12 VRB 7 11 29.68 1005 10 16 0.00 0.00
5:51 pm 17:51 undefined 97 36.1 37 2.8 12 12 NW 15 24 29.69 1005 10 16 0.00 0.00
6:51 pm 18:51 undefined 94 34.4 36 2.2 13 13 NNW 14 22 29.69 1006 10 16 0.00 0.00
7:51 pm 19:51 undefined 91 32.8 36 2.2 14 14 NW 16 26 29.71 1006 10 16 0.00 0.00
8:51 pm 20:51 undefined 89 31.7 39 3.9 17 17 NW 14 22 29.73 1007 10 16 0.00 0.00
9:51 pm 21:51 undefined 86 30 40 4.4 20 20 WNW 13 20 29.74 1007 10 16 0.00 0.00
10:51 pm 22:51 undefined 83 28.3 41 5 23 23 WNW 13 20 29.76 1008 10 16 0.00 0.00
11:51 pm 23:51 undefined 81 27.2 39 3.9 22 22 WNW 12 19 29.77 1008 10 16 0.00 0.00

Powered by AerisWeather